Location: *
(55.6049°S, 142.1985°W)
Time: 14:46:33
(UTC+00:00)

Resurs 01 Rocket - Pass Details

Date: 12 May 2021
Orbit: 633 x 645 km, 97.9° (Epoch: 17 June)

Event Time Altitude Azimuth Distance (km) Brightness Sun altitude
Rises 16:24:07 0° 58° (ENE) 2,952 7.2 -7.1°
Reaches altitude 10° 16:26:40 10° 72° (ENE) 2,052 6.0 -6.7°
Maximum altitude 16:30:09 23° 123° (ESE) 1,394 3.8 -6.3°
Drops below altitude 10° 16:33:41 10° 175° (S) 2,075 4.1 -5.8°
Sets 16:36:16 0° 188° (S) 2,994 4.7 -5.5°
